Date,TemperatureHighF,TemperatureAvgF,TemperatureLowF,DewpointHighF,DewpointAvgF,DewpointLowF,HumidityHigh,HumidityAvg,HumidityLow,PressureMaxIn,PressureMinIn,WindSpeedMaxMPH,WindSpeedAvgMPH,GustSpeedMaxMPH,PrecipitationSumIn
2014-1-1,46.4,33.9,25.1,27.2,21.5,15.4,77,61,38,30.33,30.06,17,3,18,0.00
2014-1-2,32.9,30.4,25.3,31.0,26.7,21.0,100,86,70,30.05,29.58,14,4,14,0.09
2014-1-3,26.7,18.0,10.7,22.7,1.2,-8.1,87,49,27,30.43,29.60,25,7,35,0.00
2014-1-4,30.7,19.4,8.3,14.2,7.1,0.3,76,60,37,30.44,30.17,19,2,19,0.00
2014-1-5,35.5,25.3,15.6,35.0,21.6,9.6,100,86,66,30.19,29.59,11,1,11,0.29
2014-1-6,45.1,30.2,4.8,42.5,17.3,-20.2,100,62,28,30.03,29.40,38,10,38,0.08
2014-1-7,14.3,6.8,0.7,-8.9,-15.1,-21.7,44,35,29,30.39,30.02,31,8,31,0.00
2014-1-8,29.4,20.7,11.2,12.1,-1.1,-11.6,51,38,25,30.54,30.39,15,2,16,0.00
2014-1-9,35.6,29.6,23.3,22.2,14.9,6.4,68,54,39,30.58,30.42,10,1,10,0.00
2014-1-10,36.5,34.1,31.5,35.3,29.6,18.6,100,85,55,30.47,30.07,7,0,7,0.19
2014-1-11,52.9,42.0,34.4,49.5,40.7,34.4,100,96,58,30.07,29.32,27,2,27,0.53
2014-1-12,49.4,42.2,32.5,36.3,28.8,25.5,83,59,47,30.03,29.47,32,7,35,0.00
2014-1-13,54.7,41.4,27.6,39.3,32.2,24.8,93,71,49,30.02,29.76,12,1,12,0.00
2014-1-14,50.1,44.7,32.8,47.7,42.9,31.8,99,93,71,29.83,29.60,10,1,10,0.07
2014-1-15,46.0,37.0,32.1,40.2,32.5,25.6,100,85,49,29.90,29.81,13,2,13,0.00
2014-1-16,40.2,32.8,26.1,28.8,17.4,11.0,78,54,35,29.96,29.81,17,3,19,0.00
2014-1-17,47.4,36.1,26.6,28.1,24.5,19.2,80,64,40,29.87,29.74,8,1,8,0.00
2014-1-18,35.8,26.2,21.1,30.0,11.3,2.6,92,54,36,29.92,29.73,30,6,32,0.00
2014-1-19,44.2,31.4,21.8,24.8,16.2,6.0,65,53,41,29.88,29.64,24,4,24,0.00
2014-1-20,51.4,39.5,28.5,28.0,24.3,20.6,77,56,36,29.80,29.57,26,5,26,0.00
2014-1-21,37.9,24.8,13.1,28.2,18.8,-6.6,97,79,40,29.86,29.71,22,5,22,0.24
2014-1-22,17.2,10.7,4.3,-4.6,-8.0,-10.8,58,42,31,30.03,29.86,19,4,19,0.00
2014-1-23,23.2,13.8,4.3,8.4,-2.2,-8.2,68,49,35,30.38,30.02,26,4,26,0.00
2014-1-24,20.6,13.5,6.9,-2.4,-5.6,-9.0,52,42,27,30.46,29.98,28,5,31,0.00
2014-1-25,33.1,24.0,15.1,20.0,6.1,-3.2,67,46,36,29.98,29.38,28,6,28,0.00
2014-1-26,32.1,24.7,13.6,14.1,5.1,-1.8,62,43,30,29.84,29.59,29,3,29,0.00
2014-1-27,43.5,27.5,15.6,26.8,7.8,-8.2,60,43,29,30.14,29.55,40,7,42,0.00
2014-1-28,17.2,12.0,6.5,5.0,-9.8,-15.4,74,37,25,30.40,30.14,21,2,22,0.00
2014-1-29,23.8,15.1,7.9,6.8,-7.2,-16.7,74,38,24,30.29,30.15,26,3,26,0.00
2014-1-30,33.1,21.0,6.3,6.4,-0.3,-8.8,73,41,24,30.39,30.09,17,1,17,0.00
2014-1-31,47.0,31.6,23.3,23.8,14.2,5.8,69,49,28,30.16,30.03,7,0,8,0.00
2014-2-1,51.7,38.6,27.8,25.2,19.7,12.3,81,50,22,30.21,29.91,13,0,13,0.00
2014-2-2,57.8,43.1,32.2,41.3,31.4,24.0,98,65,41,30.01,29.83,11,0,11,0.00
2014-2-3,41.9,35.3,31.0,41.4,33.8,28.1,100,94,84,30.28,29.97,17,3,17,0.91
2014-2-4,31.0,27.6,23.8,28.1,20.7,16.2,94,76,59,30.43,30.10,13,2,14,0.04
2014-2-5,41.3,33.2,27.2,37.6,28.6,-99.9,98,86,58,30.11,29.61,35,3,36,1.01
2014-2-6,34.9,28.5,24.8,22.8,16.5,11.7,81,61,43,30.28,30.05,20,3,20,0.00
2014-2-7,37.9,31.1,24.8,21.0,16.8,9.9,80,56,42,30.27,30.19,14,2,16,0.00
2014-2-8,32.7,27.9,23.9,21.6,14.3,7.3,84,57,39,30.27,30.12,12,1,12,0.00
2014-2-9,32.4,27.9,22.4,29.8,20.3,12.4,93,74,55,30.13,29.92,20,2,20,0.02
2014-2-10,30.9,25.3,20.8,21.4,9.4,4.7,68,51,37,30.28,29.98,22,4,22,0.00
2014-2-11,30.9,20.8,12.9,10.6,6.1,1.6,79,54,32,30.42,30.27,14,2,15,0.00
2014-2-12,22.5,17.9,9.9,19.0,6.2,-0.6,92,61,44,30.48,30.13,17,3,17,0.03
2014-2-13,37.5,30.2,20.5,33.7,27.4,17.8,100,90,72,30.13,29.25,36,10,36,0.29
2014-2-14,47.0,39.2,33.2,28.1,22.4,14.7,73,52,36,29.66,29.28,34,6,37,0.00
2014-2-15,37.5,33.1,27.3,32.2,25.4,6.2,96,75,40,29.87,29.56,29,6,29,0.01
2014-2-16,36.5,28.0,23.0,22.1,12.1,3.2,80,52,37,30.13,29.87,25,3,25,0.00
2014-2-17,35.9,26.8,17.8,22.1,6.7,-4.8,87,43,23,30.39,30.13,22,2,22,0.00
2014-2-18,55.1,36.1,24.4,31.0,25.1,20.9,96,68,31,30.15,29.92,17,3,17,0.07
2014-2-19,58.3,42.8,30.9,42.5,30.3,23.4,91,63,31,30.06,29.62,31,3,32,0.12
2014-2-20,53.9,42.4,29.7,32.1,26.4,18.4,87,57,26,30.17,29.85,19,1,19,0.00
2014-2-21,55.9,45.0,38.5,50.8,32.8,18.3,100,65,29,29.88,29.57,30,3,34,0.37
2014-2-22,60.9,48.7,37.2,28.4,21.6,14.0,67,36,17,30.01,29.88,27,4,27,0.00
2014-2-23,57.2,45.2,38.8,37.4,28.4,22.1,83,53,34,29.94,29.81,25,3,25,0.02
2014-2-24,40.2,35.5,29.8,32.4,11.8,3.5,76,39,24,30.06,29.84,31,8,34,0.00
2014-2-25,36.2,30.4,24.5,26.0,13.7,5.5,82,50,33,30.05,29.92,19,3,25,0.00
2014-2-26,32.5,27.6,18.4,22.4,10.4,-1.4,84,50,27,29.93,29.80,22,4,22,0.00
2014-2-27,34.0,23.9,14.3,11.4,4.0,-8.2,72,44,24,30.12,29.63,31,6,33,0.00
2014-2-28,29.5,18.1,9.3,4.6,-7.6,-15.3,54,32,18,30.38,30.12,12,1,14,0.00
2014-3-1,41.5,29.7,15.4,24.4,12.1,2.0,64,48,33,30.33,30.08,16,2,16,0.00
2014-3-2,44.3,37.9,33.1,36.0,27.7,19.2,97,69,43,30.08,29.93,11,1,11,0.12
2014-3-3,33.2,19.3,7.0,32.2,9.4,-3.0,98,67,36,30.31,29.94,19,3,19,0.20
2014-3-4,31.2,17.5,4.3,10.0,0.5,-10.3,75,51,16,30.38,30.19,8,1,8,0.00
2014-3-5,40.5,28.3,14.6,19.3,9.7,4.3,74,48,27,30.37,30.13,20,2,20,0.00
2014-3-6,33.1,26.3,19.7,16.2,10.7,6.9,59,52,41,30.53,30.31,13,3,19,0.00
2014-3-7,42.1,32.9,27.2,28.3,22.3,12.6,79,65,53,30.31,29.88,17,3,17,0.00
2014-3-8,63.2,45.1,26.9,36.0,29.7,22.5,87,58,30,29.88,29.78,20,2,20,0.00
2014-3-9,51.0,42.1,36.6,35.1,20.3,10.1,67,43,25,30.05,29.83,25,5,25,0.00
2014-3-10,65.8,49.3,38.3,32.3,25.8,16.6,59,41,26,29.92,29.55,20,2,20,0.00
2014-3-11,72.0,60.1,46.1,41.7,37.3,29.5,72,44,30,29.62,29.51,17,3,17,0.00
2014-3-12,67.9,49.1,29.4,57.9,38.4,13.5,90,67,47,29.55,28.92,45,6,49,0.18
2014-3-13,31.8,25.4,16.7,14.5,0.8,-8.7,57,35,24,30.09,29.45,35,9,37,0.00
2014-3-14,57.3,41.8,27.0,23.3,13.2,2.6,45,32,23,30.13,29.76,26,4,29,0.00
2014-3-15,62.3,53.7,44.3,36.7,23.6,16.7,56,32,18,29.97,29.69,32,6,32,0.00
2014-3-16,46.4,37.3,26.6,27.2,19.9,10.0,90,51,29,30.11,29.97,20,2,20,0.00
2014-3-17,31.3,26.6,22.1,24.6,20.7,16.4,95,79,66,30.03,29.95,15,2,17,0.15
2014-3-18,43.8,36.4,30.3,23.5,19.7,13.8,70,52,35,30.16,30.02,11,1,12,0.00
2014-3-19,43.1,38.9,35.2,42.9,34.7,22.7,100,86,50,30.15,29.77,7,0,8,0.01
2014-3-20,54.8,47.3,40.2,42.2,29.1,19.6,100,54,27,29.92,29.72,28,8,29,0.00
2014-3-21,52.9,43.4,32.9,39.9,31.2,22.7,86,63,43,30.00,29.92,21,2,22,0.04
2014-3-22,68.1,51.9,37.9,40.4,32.3,24.6,90,54,21,29.94,29.75,29,4,30,0.00
2014-3-23,47.9,40.4,30.3,29.7,19.9,3.9,68,45,26,30.13,29.93,26,5,26,0.00
2014-3-24,40.5,29.5,20.5,14.2,5.0,-1.0,53,36,20,30.25,30.06,20,4,20,0.00
2014-3-25,32.8,29.4,25.4,31.8,22.7,10.2,97,78,46,30.08,29.80,11,1,11,0.14
2014-3-26,34.6,29.4,25.7,26.2,9.1,-0.1,92,45,24,30.25,29.83,36,8,36,0.00
2014-3-27,50.4,35.4,20.3,25.4,14.7,4.0,73,44,27,30.36,30.10,24,3,24,0.00
2014-3-28,65.2,51.5,37.0,52.2,41.7,23.3,100,70,47,30.09,29.86,26,4,28,0.13
2014-3-29,55.6,49.7,48.0,49.7,47.0,41.7,100,91,71,30.00,29.50,20,6,21,1.29
2014-3-30,48.8,42.7,35.9,48.8,37.8,31.1,100,83,60,29.76,29.45,30,8,30,0.63
2014-3-31,65.8,51.7,40.9,31.9,28.4,23.7,62,43,22,30.02,29.77,30,8,33,0.00
2014-4-1,66.8,51.6,37.6,41.6,32.3,26.8,71,49,30,30.10,29.86,13,1,17,0.00
2014-4-2,66.0,51.7,42.2,50.0,42.8,37.1,88,72,50,30.04,29.90,10,0,10,0.00
2014-4-3,61.5,54.7,50.1,49.2,43.3,35.8,88,67,42,30.03,29.86,17,3,17,0.02
2014-4-4,55.4,50.5,47.1,49.4,43.8,34.4,100,78,60,29.88,29.62,16,2,16,0.03
2014-4-5,53.5,49.1,43.6,49.4,32.5,23.1,100,56,36,30.07,29.65,27,6,27,0.00
2014-4-6,60.9,47.6,33.7,30.8,22.1,11.7,64,39,16,30.18,30.04,14,1,14,0.00
2014-4-7,47.1,42.2,38.5,47.1,37.1,24.6,100,84,47,30.08,29.53,18,2,19,0.26
2014-4-8,60.2,52.5,43.8,52.4,42.6,34.3,100,73,41,29.60,29.38,33,5,36,0.00
2014-4-9,65.2,52.9,37.9,38.7,31.1,21.2,86,48,22,29.96,29.60,25,4,25,0.00
2014-4-10,70.9,56.3,35.3,36.5,32.0,26.1,77,43,24,30.11,29.89,25,4,26,0.00
2014-4-11,80.9,63.4,56.6,55.4,43.7,34.4,92,52,25,29.95,29.81,25,3,26,0.02
2014-4-12,76.3,63.9,46.7,54.0,41.4,26.7,96,51,18,30.17,29.94,16,2,17,0.00
2014-4-13,83.8,68.7,53.6,57.2,52.3,43.2,86,59,33,30.03,29.84,28,4,28,0.00
2014-4-14,76.5,70.1,63.9,57.4,54.5,51.9,71,58,43,29.86,29.66,30,7,32,0.00
2014-4-15,69.9,54.0,35.2,64.7,48.6,18.9,100,83,51,29.99,29.43,41,7,41,0.82
2014-4-16,46.8,37.6,30.1,23.6,14.6,8.1,59,39,26,30.46,29.98,26,4,28,0.00
2014-4-17,55.3,43.9,32.1,32.5,25.7,18.0,69,50,29,30.58,30.45,18,3,18,0.00
2014-4-18,58.4,45.0,33.7,38.2,32.3,28.3,82,63,39,30.52,30.18,11,1,11,0.00
2014-4-19,66.3,53.8,40.9,40.6,33.2,25.2,82,50,26,30.23,30.14,18,2,19,0.00
2014-4-20,64.2,54.8,46.8,37.3,30.9,22.0,68,41,31,30.35,30.22,17,4,17,0.00
2014-4-21,73.2,55.3,36.6,39.0,31.5,17.9,84,47,14,30.22,29.78,11,1,12,0.00
2014-4-22,73.2,60.6,51.4,56.7,47.5,34.3,96,63,35,29.78,29.46,21,2,21,0.13
2014-4-23,55.1,50.1,46.4,41.9,33.9,27.4,67,54,45,29.90,29.60,35,8,35,0.00
2014-4-24,66.6,51.8,41.1,33.6,23.2,12.0,55,35,17,30.06,29.90,24,4,24,0.00
2014-4-25,66.0,52.8,43.5,52.3,39.2,27.4,100,64,31,29.93,29.65,19,2,19,0.39
2014-4-26,76.5,61.6,46.4,52.2,42.4,29.3,99,53,23,29.83,29.63,32,6,36,0.03
2014-4-27,65.8,55.1,44.3,40.5,33.8,27.3,63,46,29,30.02,29.83,14,2,14,0.00
2014-4-28,62.4,52.6,47.3,50.4,39.9,33.6,100,64,42,30.05,29.89,14,2,16,0.18
2014-4-29,51.0,48.0,46.2,51.0,47.4,43.4,100,98,84,30.15,29.97,14,3,17,0.73
2014-4-30,57.5,50.3,45.7,57.3,50.3,45.5,100,100,95,30.12,29.74,19,6,20,1.45
2014-5-1,78.8,64.6,54.5,59.6,52.3,36.0,100,69,36,29.76,29.60,25,3,26,0.01
2014-5-2,68.3,60.1,48.8,43.0,37.4,32.8,73,44,29,29.80,29.70,24,3,24,0.00
2014-5-3,72.1,59.0,50.5,46.4,43.0,38.3,82,58,33,29.80,29.67,21,2,21,0.00
2014-5-4,72.3,58.8,45.2,77.1,42.3,31.5,85,55,28,29.86,29.66,22,2,22,0.00
2014-5-5,66.0,52.4,42.9,46.0,27.5,-99.9,83,46,30,29.98,29.80,19,-42,19,0.00
2014-5-6,74.2,55.7,50.8,51.3,29.1,-99.9,94,53,23,29.94,29.81,18,-95,18,0.01
2014-5-7,61.5,49.8,49.1,53.0,25.3,-99.9,98,59,38,30.20,29.94,12,-92,12,0.32
2014-5-8,90.1,64.5,51.3,65.5,44.7,-99.9,100,64,35,30.08,29.88,11,-47,12,0.00
2014-5-9,78.3,68.1,61.8,64.9,62.3,60.5,100,83,60,30.03,29.85,11,1,11,0.00
2014-5-10,82.0,68.9,61.0,66.8,63.3,57.4,100,84,46,29.88,29.81,13,2,18,0.35
2014-5-11,83.0,63.7,55.3,61.0,39.8,-99.9,100,58,30,30.05,29.86,11,-50,17,0.00
2014-5-12,87.4,71.3,55.7,67.9,60.8,54.3,98,72,44,30.04,29.94,12,1,12,0.00
2014-5-13,89.3,75.6,63.2,70.0,65.7,60.8,100,75,45,30.08,29.93,21,2,22,0.10
2014-5-14,67.4,62.7,58.9,63.7,60.7,57.2,100,94,81,30.14,30.04,9,1,12,0.01
2014-5-15,80.1,67.0,63.5,71.2,60.3,-99.9,100,87,62,30.06,29.79,24,-28,25,0.58
2014-5-16,70.4,54.4,54.7,68.9,29.0,-99.9,100,63,44,29.87,29.64,31,-112,32,1.82
2014-5-17,66.6,56.9,48.2,45.5,39.6,29.7,81,55,27,30.09,29.87,18,3,19,0.00
2014-5-18,65.5,50.8,46.5,41.2,21.8,-99.9,79,45,29,30.18,30.09,22,-72,22,0.00
2014-5-19,74.6,52.8,42.2,47.1,19.4,-99.9,94,43,24,30.22,30.06,17,-140,17,0.00
2014-5-20,78.1,63.6,47.1,55.1,42.8,-99.9,86,53,25,30.13,29.91,11,-10,12,0.00
2014-5-21,72.5,64.6,57.5,64.7,57.6,51.1,100,79,63,29.92,29.80,10,1,12,0.01
2014-5-22,87.4,71.2,60.4,68.4,57.9,-99.9,100,70,38,29.82,29.67,18,-6,27,0.45
2014-5-23,75.3,65.3,56.9,52.5,48.1,41.7,78,55,38,29.95,29.81,24,6,28,0.00
2014-5-24,76.3,64.6,52.3,54.7,49.4,44.6,80,59,38,30.04,29.93,22,4,24,0.00
2014-5-25,83.2,68.6,52.5,57.9,51.4,42.7,99,60,27,30.08,29.99,14,1,14,0.00
2014-5-26,87.8,71.7,55.0,61.4,54.5,47.1,94,60,28,30.04,29.86,12,2,12,0.00
2014-5-27,90.1,73.0,63.4,72.8,64.5,56.7,100,77,50,29.89,29.74,21,3,28,0.16
2014-5-28,82.8,73.3,60.5,68.8,65.6,59.9,99,78,59,29.98,29.75,16,3,20,0.00
2014-5-29,60.4,50.2,55.3,60.1,35.4,-99.9,100,86,93,30.11,29.99,12,-112,13,0.27
2014-5-30,77.7,63.9,55.1,60.6,56.5,54.3,100,80,47,30.08,29.96,10,1,11,0.01
2014-5-31,77.6,67.4,55.1,57.3,48.9,38.7,98,56,27,30.16,30.01,15,2,18,0.00
2014-6-1,77.9,65.4,52.0,59.2,53.3,49.2,100,68,40,30.27,30.12,14,2,18,0.00
2014-6-2,82.8,68.6,54.7,63.9,57.4,52.7,97,70,44,30.18,29.94,14,3,19,0.00
2014-6-3,86.1,74.7,64.8,70.1,62.9,-99.9,91,72,56,29.95,29.73,11,-8,13,0.00
2014-6-4,86.5,70.8,67.1,67.2,49.3,-99.9,99,58,33,29.78,29.60,12,-70,12,0.07
2014-6-5,78.3,64.4,60.4,66.8,39.2,-99.9,100,62,37,29.79,29.51,17,-54,21,0.34
2014-6-6,80.7,66.7,56.7,57.2,46.2,-99.9,86,55,36,29.90,29.77,14,-7,16,0.00
2014-6-7,85.7,62.4,54.5,60.3,29.2,-99.9,100,51,35,29.96,29.85,7,-96,10,0.00
2014-6-8,82.8,71.0,58.0,71.5,62.8,57.2,100,78,49,29.88,29.71,16,3,21,0.07
2014-6-9,85.3,61.2,68.6,73.4,31.4,-99.9,100,60,54,29.79,29.73,8,-181,12,0.07
2014-6-10,88.8,70.2,70.6,73.8,51.5,-99.9,100,70,51,29.84,29.76,10,-95,10,0.51
2014-6-11,85.3,72.9,66.4,72.3,69.3,63.0,100,90,56,29.93,29.79,29,2,29,1.12
2014-6-12,75.8,51.0,67.4,73.3,-2.0,-99.9,100,55,82,29.89,29.74,14,-276,14,0.17
2014-6-13,87.0,75.3,68.1,74.7,68.4,58.8,100,82,49,29.78,29.62,27,2,27,0.05
2014-6-14,73.2,67.2,58.7,64.2,54.8,48.8,100,66,45,30.03,29.77,22,4,22,0.02
2014-6-15,85.3,68.8,51.7,64.5,56.0,51.1,100,68,37,30.10,29.97,12,1,12,0.00
2014-6-16,94.0,75.0,59.8,73.3,64.5,59.6,100,75,36,30.05,29.93,28,1,28,0.00
2014-6-17,95.6,82.2,69.8,73.8,70.8,67.7,99,71,44,30.01,29.84,13,3,13,0.00
2014-6-18,93.6,84.2,75.4,75.6,70.2,62.5,93,64,48,29.92,29.81,18,3,18,0.00
2014-6-19,85.5,75.1,68.1,75.3,69.2,64.5,100,84,56,29.94,29.83,30,2,30,0.00
2014-6-20,84.3,71.6,61.8,68.1,54.2,41.1,100,58,32,29.99,29.83,12,1,13,0.00
2014-6-21,70.4,66.9,63.5,61.3,58.3,54.8,86,74,62,29.86,29.80,12,1,12,0.00
2014-6-22,84.0,70.7,59.3,64.9,61.5,58.0,100,75,46,29.91,29.81,7,0,7,0.00
2014-6-23,82.8,72.5,59.9,67.6,62.0,56.0,100,73,45,30.02,29.91,22,3,22,0.00
2014-6-24,85.7,75.6,64.0,70.5,66.0,60.1,96,73,57,30.03,29.87,19,4,19,0.00
2014-6-25,89.0,77.8,70.1,74.1,70.9,66.0,100,82,56,29.89,29.68,26,3,26,0.28
2014-6-26,86.7,77.7,69.4,72.1,66.9,60.6,100,72,44,29.89,29.74,21,4,21,0.00
2014-6-27,86.7,75.6,64.5,69.7,65.4,-99.9,100,75,49,30.09,29.89,16,2,16,0.00
2014-6-28,86.1,75.3,63.9,65.8,60.9,51.6,100,64,37,30.18,30.08,16,2,16,0.00
2014-6-29,85.1,75.7,65.2,63.2,59.3,52.7,90,60,35,30.14,29.99,19,3,19,0.00
2014-6-30,89.9,78.2,67.6,70.9,65.9,60.3,84,67,49,30.01,29.81,14,2,14,0.00
2014-7-1,94.0,81.1,71.1,77.3,72.4,69.5,100,78,48,29.85,29.70,26,3,26,0.35
2014-7-2,97.3,80.9,73.2,78.3,74.7,65.9,100,84,45,29.82,29.72,36,2,36,0.18
2014-7-3,92.3,77.8,71.5,76.8,73.0,66.4,100,88,45,29.89,29.78,29,2,29,0.40
2014-7-4,76.8,71.8,64.7,72.3,57.6,47.0,100,64,39,30.09,29.88,30,6,30,0.04
2014-7-5,84.0,72.0,61.5,61.1,50.7,44.7,84,50,27,30.17,30.06,19,3,19,0.00
2014-7-6,87.8,72.6,60.2,64.7,55.2,-99.9,89,60,37,30.06,29.84,20,-22,20,0.00
2014-7-7,90.3,78.3,69.8,70.2,60.6,-99.9,84,61,47,29.83,29.67,24,-12,24,0.00
2014-7-8,92.5,78.4,68.6,71.9,68.8,56.4,100,75,46,29.75,29.57,34,4,34,0.13
2014-7-9,87.8,75.1,67.8,74.6,69.6,57.8,100,85,53,29.86,29.71,26,2,26,0.37
2014-7-10,87.4,75.2,66.8,70.6,66.5,58.9,100,77,40,30.03,29.86,16,2,16,0.00
2014-7-11,90.1,75.7,64.3,69.8,65.7,59.3,100,74,40,30.11,30.02,10,0,10,0.00
2014-7-12,89.5,75.1,67.6,74.3,68.1,67.6,100,77,53,30.11,29.98,21,2,21,0.00
2014-7-13,91.0,78.7,69.4,76.1,72.3,66.4,100,83,56,29.99,29.77,36,3,36,0.85
2014-7-14,88.6,77.2,70.3,82.4,73.7,70.3,100,90,66,29.84,29.69,17,1,17,0.29
2014-7-15,85.9,75.9,70.3,76.1,72.4,68.3,100,90,63,29.72,29.61,14,1,14,0.20
2014-7-16,80.1,71.5,63.9,70.3,58.8,50.3,100,68,37,29.83,29.68,20,2,20,0.05
2014-7-17,81.6,70.8,59.9,60.9,55.7,49.2,90,61,35,30.04,29.83,16,2,16,0.00
2014-7-18,83.4,70.1,55.9,64.9,58.0,53.4,100,69,40,30.15,30.05,10,0,10,0.00
2014-7-19,79.6,71.1,64.2,66.4,62.5,54.2,100,77,45,30.12,30.03,12,1,12,0.03
2014-7-20,85.7,72.9,64.0,68.4,64.4,56.1,100,77,41,30.05,29.97,10,1,10,0.00
2014-7-21,81.8,75.3,70.8,71.2,69.0,66.6,99,82,66,30.09,30.01,10,1,10,0.00
2014-7-22,88.2,77.3,68.8,73.1,71.1,67.8,100,83,57,30.09,29.95,16,2,18,0.00
2014-7-23,95.1,79.4,71.1,75.7,73.0,67.5,100,84,48,29.95,29.67,27,2,27,0.16
2014-7-24,79.4,72.6,63.9,73.2,64.8,56.4,100,79,48,29.86,29.75,12,1,12,0.29
2014-7-25,84.7,70.7,59.3,63.8,55.6,47.7,91,62,35,29.99,29.87,17,1,17,0.00
2014-7-26,88.4,74.6,63.7,68.1,62.4,55.7,99,69,37,29.91,29.76,10,1,10,0.00
2014-7-27,87.2,77.2,66.4,73.6,70.0,64.5,100,80,61,29.77,29.53,21,3,21,0.25
2014-7-28,80.7,71.6,65.5,71.1,63.5,57.2,100,78,48,29.74,29.46,25,4,25,0.01
2014-7-29,74.2,65.4,57.5,60.7,53.8,49.4,85,67,47,29.93,29.74,17,3,17,0.00
2014-7-30,80.7,67.5,54.1,61.8,55.0,50.5,98,68,39,29.99,29.91,12,1,12,0.00
2014-7-31,87.8,73.6,58.9,66.0,61.0,56.7,100,69,38,30.01,29.94,14,1,14,0.00
2014-8-1,77.9,72.2,65.0,69.9,65.9,62.0,100,81,67,30.09,30.01,14,1,14,0.00
2014-8-2,80.1,72.4,64.7,68.4,64.8,60.8,99,78,62,30.06,29.95,16,1,16,0.00
2014-8-3,83.0,72.4,64.3,70.6,68.4,62.4,100,88,61,29.99,29.88,26,1,26,0.49
2014-8-4,82.4,71.5,61.8,70.7,65.2,61.8,100,83,56,30.02,29.95,12,1,14,0.01
2014-8-5,92.7,75.7,61.6,70.3,64.7,59.7,100,74,36,29.98,29.83,22,1,22,0.35
2014-8-6,81.8,64.8,62.4,70.5,60.2,62.3,100,79,56,29.87,29.80,11,0,11,0.02
2014-8-7,82.0,57.6,64.5,67.5,43.4,53.9,100,45,40,29.95,29.84,19,1,19,0.00
2014-8-8,85.5,43.7,57.3,62.9,33.7,53.2,100,34,37,30.05,29.95,8,0,8,0.00
2014-8-9,83.4,54.6,61.6,68.1,47.0,60.0,96,53,54,30.03,29.96,11,1,11,0.00
2014-8-10,84.9,63.4,63.4,69.1,53.4,60.4,100,59,49,30.05,29.96,8,0,8,0.00
2014-8-11,81.6,68.8,61.0,68.4,61.1,56.3,100,77,44,30.02,29.91,18,2,18,0.21
2014-8-12,76.0,70.8,67.1,74.7,70.3,66.0,100,98,86,29.91,29.67,10,0,10,0.76
2014-8-13,79.8,73.3,67.3,72.8,63.4,55.0,100,73,52,29.81,29.65,22,4,22,0.00
2014-8-14,82.2,69.0,59.6,61.4,51.5,46.4,80,55,35,29.85,29.75,18,3,18,0.00
2014-8-15,80.5,66.4,51.6,59.9,51.0,46.0,96,60,32,29.93,29.85,14,2,14,0.00
2014-8-16,82.8,60.6,51.3,63.2,45.3,47.0,100,55,31,29.94,29.83,13,1,13,0.00
2014-8-17,87.0,58.2,62.0,69.3,45.6,59.7,94,49,47,29.84,29.76,16,2,16,0.00
2014-8-18,82.2,67.0,61.8,67.8,56.7,59.7,99,67,53,29.85,29.70,8,0,8,0.00
2014-8-19,82.6,64.3,65.6,70.6,56.3,62.1,99,66,65,29.82,29.72,10,1,10,0.00
2014-8-20,84.3,73.2,66.8,74.7,67.4,64.8,100,84,58,29.91,29.80,18,2,18,0.04
2014-8-21,91.2,75.0,63.9,73.8,68.6,63.9,100,83,47,29.95,29.87,14,1,17,0.03
2014-8-22,83.0,74.5,67.6,72.5,69.2,66.0,100,84,63,29.92,29.84,11,0,11,0.20
2014-8-23,71.1,68.4,66.0,71.1,68.4,66.0,100,100,96,30.01,29.88,8,1,10,1.14
2014-8-24,77.6,69.1,61.8,66.2,63.2,58.2,100,84,54,30.07,30.00,10,1,10,0.08
2014-8-25,82.0,68.9,58.3,64.6,60.0,53.4,100,77,40,30.11,30.03,13,1,13,0.00
2014-8-26,88.4,71.3,56.7,68.9,62.2,56.6,100,77,40,30.10,29.98,7,0,7,0.00
2014-8-27,91.0,76.2,61.0,75.2,67.7,61.0,100,78,50,29.99,29.80,10,1,10,0.00
2014-8-28,80.5,74.8,65.8,72.0,60.6,51.5,90,63,39,29.99,29.79,20,4,20,0.00
2014-8-29,78.1,66.3,53.9,60.4,52.8,50.5,93,63,43,30.12,29.99,12,1,12,0.00
2014-8-30,81.1,64.9,62.0,72.3,59.1,57.8,91,72,69,30.13,29.99,16,2,16,0.00
2014-8-31,91.2,72.2,73.2,76.6,68.6,71.2,100,83,54,30.02,29.88,27,2,27,0.36
2014-9-1,90.3,78.9,71.8,78.9,74.1,71.0,100,87,57,29.93,29.81,12,1,12,0.13
2014-9-2,92.7,79.5,70.9,77.6,72.3,66.9,100,81,51,29.87,29.72,26,2,26,0.38
2014-9-3,87.0,75.1,67.8,72.5,68.1,64.2,100,81,50,30.03,29.80,7,0,10,0.00
2014-9-4,87.4,76.5,65.6,71.9,68.5,65.2,100,78,57,30.08,29.97,14,1,14,0.00
2014-9-5,92.7,79.2,70.8,78.1,73.5,69.2,100,85,53,30.05,29.90,12,0,12,0.00
2014-9-6,92.9,78.2,71.5,75.6,72.5,64.9,100,84,54,29.91,29.74,22,2,27,0.13
2014-9-7,76.3,69.1,61.8,69.6,56.6,49.6,93,66,40,30.08,29.88,16,2,16,0.00
2014-9-8,74.2,65.1,56.2,65.2,58.6,54.8,99,81,56,30.17,30.08,19,2,19,0.00
2014-9-9,73.0,68.2,64.2,66.1,63.2,58.7,92,84,75,30.13,30.00,12,2,12,0.00
2014-9-10,79.8,71.3,66.6,67.5,65.4,63.9,96,83,63,30.03,29.87,13,2,13,0.00
2014-9-11,87.2,75.3,68.3,73.4,69.1,60.0,100,82,59,29.91,29.75,13,3,13,0.01
2014-9-12,74.6,65.4,57.8,60.5,56.6,53.0,100,74,56,30.07,29.91,12,1,12,0.00
2014-9-13,68.6,60.5,56.2,63.5,56.7,49.3,100,88,66,30.14,30.02,16,2,16,0.12
2014-9-14,70.9,59.0,46.2,55.7,49.4,44.6,100,73,46,30.25,30.11,12,1,12,0.00
2014-9-15,75.1,60.8,47.4,60.0,52.4,13.9,100,78,16,30.17,29.94,11,0,11,0.00
2014-9-16,73.5,64.3,53.3,61.5,55.0,49.1,100,74,45,29.95,29.90,19,2,25,0.00
2014-9-17,76.8,60.7,47.1,59.0,51.4,46.8,100,76,36,29.99,29.86,10,0,10,0.00
2014-9-18,76.5,63.0,52.8,59.4,53.4,46.0,100,75,36,30.02,29.87,10,1,11,0.00
2014-9-19,72.3,62.6,52.5,60.5,54.3,49.4,96,76,54,30.19,30.02,14,2,14,0.00
2014-9-20,80.5,69.0,61.6,64.1,60.7,57.2,100,78,46,30.19,29.94,17,2,19,0.00
2014-9-21,85.7,70.2,55.6,68.8,61.3,50.9,100,77,46,29.95,29.52,20,2,28,0.00
2014-9-22,71.3,62.5,52.8,52.2,47.9,42.4,81,60,44,30.15,29.66,22,5,24,0.00
2014-9-23,70.3,57.5,43.8,53.7,45.0,39.6,98,66,35,30.31,30.15,11,1,11,0.00
2014-9-24,68.8,58.1,46.2,59.0,53.3,46.1,100,86,66,30.41,30.30,17,2,17,0.04
2014-9-25,68.4,61.9,57.5,63.3,60.1,57.4,100,94,81,30.30,30.15,21,6,21,0.64
2014-9-26,75.3,63.5,52.2,61.6,55.2,51.5,100,78,44,30.18,30.09,13,2,16,0.00
2014-9-27,83.8,64.4,50.1,62.7,55.6,50.1,100,78,36,30.17,30.07,10,1,11,0.00
2014-9-28,82.0,65.5,50.8,65.2,57.8,50.8,100,80,37,30.12,29.94,11,0,11,0.00
2014-9-29,75.6,66.1,59.0,65.8,62.4,59.0,100,89,63,29.94,29.81,10,1,11,0.00
2014-9-30,77.2,67.0,61.0,66.2,63.4,61.0,100,90,61,29.86,29.74,16,1,18,0.16
2014-10-1,69.8,63.2,57.5,63.5,61.2,57.5,100,94,77,29.98,29.85,10,1,12,0.02
2014-10-2,75.3,63.9,55.4,63.4,59.4,55.4,100,87,59,30.06,29.97,8,0,11,0.00
2014-10-3,67.6,64.6,61.8,65.8,62.1,59.0,100,92,83,30.01,29.60,15,2,17,0.98
2014-10-4,66.0,58.9,39.9,66.0,47.3,29.6,100,69,32,29.74,29.50,25,4,30,0.08
2014-10-5,63.2,48.1,35.8,44.8,38.0,32.1,100,73,34,29.89,29.74,17,2,17,0.00
2014-10-6,72.5,56.2,38.3,51.2,45.3,38.3,100,71,41,29.92,29.79,26,4,26,0.00
2014-10-7,67.3,61.5,56.5,61.6,56.5,48.6,100,84,57,29.93,29.74,17,3,17,0.09
2014-10-8,74.6,63.2,50.1,59.5,51.3,42.1,100,70,34,29.92,29.74,25,3,26,0.00
2014-10-9,72.0,58.1,43.3,48.7,44.5,38.0,95,64,34,30.03,29.91,20,2,20,0.00
2014-10-10,59.8,56.3,54.4,53.3,50.9,47.4,90,82,65,30.04,29.97,10,1,10,0.01
2014-10-11,58.3,52.7,49.2,53.6,51.3,49.2,100,95,78,30.09,29.92,11,2,11,0.26
2014-10-12,65.2,54.5,46.1,52.2,46.6,41.0,100,77,48,30.22,30.09,12,1,12,0.00
2014-10-13,63.1,58.9,54.4,63.1,58.3,52.1,100,98,91,30.20,30.09,6,0,6,0.03
2014-10-14,78.3,70.7,62.7,69.7,67.0,62.6,100,89,68,30.09,29.83,22,4,22,0.04
2014-10-15,73.0,66.5,61.8,71.3,66.0,61.7,100,99,90,29.83,29.64,24,3,24,1.58
2014-10-16,68.6,60.4,57.3,61.6,58.7,57.0,100,94,68,29.65,29.60,10,1,10,0.00
2014-10-17,73.3,60.4,54.8,57.3,51.6,50.8,100,72,46,29.70,29.56,20,3,20,0.00
2014-10-18,65.8,57.6,50.1,55.5,47.7,40.2,100,71,52,29.78,29.51,24,4,24,0.00
2014-10-19,58.0,50.7,41.3,42.4,34.6,27.0,88,56,33,30.02,29.77,25,6,25,0.00
2014-10-20,65.2,49.2,34.9,53.9,42.2,34.9,100,79,43,30.04,29.82,13,1,13,0.01
2014-10-21,66.1,55.1,45.2,55.1,50.1,45.1,100,85,52,29.83,29.71,16,1,16,0.04
2014-10-22,57.0,53.9,51.6,52.9,49.1,42.8,100,84,67,29.89,29.78,25,4,28,0.17
2014-10-23,64.0,57.2,50.5,47.6,43.7,39.7,76,62,44,29.86,29.75,31,8,31,0.00
2014-10-24,67.8,58.4,52.6,44.7,39.8,31.4,72,52,27,29.91,29.79,24,4,24,0.00
2014-10-25,72.8,60.5,46.4,50.8,43.2,37.1,81,54,35,29.86,29.57,21,3,21,0.00
2014-10-26,68.6,55.0,47.0,51.6,30.5,27.4,69,34,23,29.83,29.56,26,5,26,0.00
2014-10-27,72.8,54.4,36.2,43.7,36.1,29.1,91,55,22,30.00,29.84,12,1,12,0.00
2014-10-28,82.4,64.7,52.3,59.9,49.8,38.4,77,60,37,29.94,29.79,11,2,11,0.00
2014-10-29,66.1,57.7,44.5,57.9,52.2,44.3,100,83,61,29.91,29.78,19,1,19,0.08
2014-10-30,55.4,48.8,40.8,44.3,39.5,35.5,100,72,49,29.99,29.90,16,2,16,0.00
2014-10-31,54.7,47.3,41.1,42.8,38.7,34.5,97,73,51,29.95,29.76,8,0,8,0.00
2014-11-1,51.3,47.4,43.2,42.3,37.6,29.8,87,69,55,29.87,29.70,31,7,31,0.01
2014-11-2,49.6,44.1,40.3,31.4,23.7,14.6,68,46,27,30.15,29.86,31,8,31,0.00
2014-11-3,61.2,47.7,39.5,31.7,22.6,13.9,71,39,17,30.25,30.12,19,3,19,0.00
2014-11-4,72.0,55.2,38.8,44.8,34.2,23.8,77,49,18,30.13,29.94,9,1,10,0.00
2014-11-5,67.3,57.2,50.2,53.8,46.6,36.9,100,70,44,30.09,29.95,14,1,14,0.04
2014-11-6,58.1,53.2,50.2,56.3,50.5,39.9,100,91,58,30.03,29.56,21,1,21,0.27
2014-11-7,51.9,46.9,39.1,42.5,32.9,24.3,78,59,42,29.97,29.62,31,6,31,0.01
2014-11-8,48.9,41.5,31.2,33.0,27.4,22.0,80,58,39,29.99,29.81,19,3,19,0.01
2014-11-9,57.0,33.1,36.9,37.1,22.6,28.9,88,41,36,29.95,29.81,22,2,22,0.00
2014-11-10,65.0,37.5,33.1,42.5,28.6,33.1,100,49,42,30.08,29.94,14,1,14,0.00
2014-11-11,69.3,51.0,33.8,58.0,45.0,33.8,100,82,53,30.00,29.78,17,1,17,0.00
2014-11-12,60.2,51.2,35.2,55.0,39.8,27.2,100,69,36,30.07,29.76,25,4,25,0.00
2014-11-13,42.9,38.6,33.4,36.1,29.0,24.7,98,69,49,30.08,29.98,17,2,19,0.00
2014-11-14,39.3,34.3,28.7,28.0,19.0,12.6,74,54,34,30.21,29.99,21,6,25,0.01
2014-11-15,42.5,32.1,25.6,22.6,18.2,15.2,81,55,33,30.35,30.19,28,5,29,0.00
2014-11-16,40.9,34.4,27.0,36.8,25.0,21.1,100,67,47,30.27,29.95,14,1,14,0.25
2014-11-17,46.5,40.4,36.6,45.7,37.0,21.8,100,89,55,29.95,29.44,27,3,27,0.26
2014-11-18,36.9,23.5,22.1,21.7,3.2,-2.3,56,35,28,30.17,29.69,39,10,39,0.00
2014-11-19,32.9,25.8,19.1,13.7,7.3,3.2,53,42,32,30.27,29.92,17,4,20,0.00
2014-11-20,50.4,35.3,25.8,25.0,14.8,7.9,67,42,28,30.05,29.80,25,5,25,0.00
2014-11-21,34.3,28.7,20.0,12.9,8.0,4.4,72,42,29,30.48,30.05,24,5,24,0.00
2014-11-22,47.3,30.2,17.0,20.0,14.0,10.4,81,48,28,30.47,30.14,16,2,16,0.00
2014-11-23,53.6,35.3,34.9,47.3,20.1,20.0,100,37,32,30.15,29.68,11,1,11,0.14
2014-11-24,69.9,59.4,47.3,60.5,52.6,47.3,100,76,56,29.68,29.45,31,6,32,0.29
2014-11-25,61.2,49.5,39.2,51.8,32.1,26.3,90,52,32,30.08,29.68,28,4,28,0.00
2014-11-26,44.1,37.6,33.2,38.5,34.6,31.0,100,90,60,30.08,29.85,18,3,18,0.80
2014-11-27,42.9,37.6,35.2,34.4,30.9,23.4,91,77,58,30.11,29.91,21,4,21,0.00
2014-11-28,37.5,32.6,28.1,26.1,18.8,12.6,77,55,38,30.24,30.11,21,4,21,0.00
2014-11-29,44.1,35.1,28.5,29.9,22.6,20.5,89,54,46,30.24,30.05,17,2,17,0.00
2014-11-30,63.7,48.4,36.5,45.8,36.9,29.3,78,65,46,30.05,29.93,12,2,12,0.00
2014-12-1,71.1,52.8,42.3,54.6,43.3,26.7,87,70,52,30.39,30.01,26,4,26,0.00
2014-12-2,42.2,35.0,32.7,36.2,31.5,26.0,100,88,53,30.51,30.22,11,1,11,0.23
2014-12-3,50.4,41.1,35.6,46.0,36.8,24.0,100,87,51,30.23,29.95,26,4,26,0.05
2014-12-4,43.2,39.8,32.7,31.8,26.4,23.0,80,59,48,30.40,30.22,22,2,22,0.00
2014-12-5,42.1,39.3,37.6,39.7,31.9,26.3,97,75,62,30.44,30.22,10,1,10,0.06
2014-12-6,47.0,43.4,40.5,46.8,42.0,35.1,100,95,76,30.22,29.95,20,2,20,0.36
2014-12-7,44.2,38.4,33.1,35.1,20.7,12.6,74,50,30,30.51,30.20,22,4,22,0.01
2014-12-8,33.4,30.6,28.8,30.0,19.1,12.1,98,63,41,30.53,30.19,17,4,17,0.03
2014-12-9,45.5,39.2,30.7,40.8,35.3,29.4,100,87,65,30.19,29.80,19,2,19,0.28
2014-12-10,44.2,40.8,35.9,33.8,29.4,23.0,73,64,57,29.81,29.70,35,10,35,0.00
2014-12-11,39.1,35.7,32.9,24.2,18.8,5.3,64,51,26,29.91,29.71,34,8,34,0.00
2014-12-12,40.8,37.7,35.8,26.1,21.9,7.7,66,53,28,30.04,29.90,17,4,20,0.00
2014-12-13,43.6,38.9,34.1,30.1,26.7,24.0,70,61,55,30.05,29.92,14,2,14,0.00
2014-12-14,51.7,47.8,40.3,39.0,36.8,29.5,72,66,59,29.93,29.84,22,3,22,0.00
2014-12-15,59.9,47.3,38.6,43.1,39.5,35.5,92,75,51,30.00,29.91,12,1,12,0.00
2014-12-16,45.4,40.3,35.5,45.4,40.1,35.0,100,99,90,29.97,29.78,7,1,7,0.20
2014-12-17,48.8,43.8,36.8,42.8,32.7,20.7,100,67,47,29.99,29.81,25,4,25,0.00
2014-12-18,37.8,34.9,32.8,23.4,21.4,17.3,65,57,50,30.10,29.98,25,5,25,0.00
2014-12-19,39.9,35.1,32.4,24.4,22.6,18.6,66,60,50,30.17,30.02,19,4,19,0.00
2014-12-20,37.2,32.4,26.1,25.8,20.9,18.1,76,62,52,30.25,30.15,19,1,19,0.00
2014-12-21,42.1,34.1,28.8,25.2,22.8,21.5,75,63,49,30.28,30.19,10,1,10,0.00
2014-12-22,37.2,30.7,24.2,37.2,27.0,20.1,100,87,70,30.25,30.02,10,1,10,0.08
2014-12-23,46.8,42.2,36.8,46.5,42.2,36.8,100,100,98,30.02,29.93,6,0,6,0.03
2014-12-24,54.4,48.0,44.5,54.4,48.0,44.5,100,100,100,29.95,29.42,13,0,13,0.68
2014-12-25,54.5,47.6,36.5,53.9,34.6,28.4,100,62,45,30.14,29.47,28,6,28,0.02
2014-12-26,53.6,40.9,30.9,33.9,31.0,27.4,89,69,43,30.25,30.13,17,2,17,0.00
2014-12-27,61.5,44.5,31.0,37.2,31.8,28.4,93,64,31,30.22,29.95,7,1,7,0.00
2014-12-28,57.3,49.8,43.1,44.8,38.3,29.7,77,65,57,30.03,29.82,17,3,17,0.00
2014-12-29,47.9,40.6,31.6,31.3,25.9,21.6,75,56,38,30.19,30.02,15,1,15,0.00
2014-12-30,41.1,33.1,24.5,24.5,16.6,7.4,75,52,28,30.36,30.19,14,1,14,0.00
2014-12-31,35.2,29.5,23.9,16.5,8.2,1.2,68,42,27,30.38,30.15,21,4,21,0.00
2015-1-1,44.5,35.6,26.7,20.7,11.4,-0.1,53,37,27,30.15,29.94,24,6,24,0.00
2015-1-2,45.2,37.3,29.7,23.3,20.0,14.2,74,50,36,30.34,30.00,19,3,19,0.00